Kirksville, MO

3:17 AM CDT on April 21, 2018 (GMT -0500)
Kirksville Regional

Weather History for KIRK - October, 2014

Change the Weather History Date:

Thursday, October 9, 2014

  Actual Average Record
Temperature  
Mean Temperature 56 °F 55 °F  
Max Temperature 61 °F 67 °F 88 °F (1938)
Min Temperature 51 °F 44 °F 25 °F (2000)
Degree Days  
Heating Degree Days 9 10  
Month to date heating degree days 82 81  
Since 1 July heating degree days 188 188  
Cooling Degree Days 0 1  
Month to date cooling degree days 0 9  
Year to date cooling degree days 955 936  
Growing Degree Days 6 (Base 50)    
Moisture  
Dew Point 51 °F    
Average Humidity 82    
Maximum Humidity 96    
Minimum Humidity 67    
Precipitation  
Precipitation 0.16 in 0.11 in 3.39 in (1985)
Month to date precipitation 2.23 0.98  
Year to date precipitation 40.39 32.50  
Sea Level Pressure  
Sea Level Pressure 30.09 in    
Wind  
Wind Speed 8 mph (ENE)    
Max Wind Speed 18 mph    
Max Gust Speed 22 mph    
Visibility 10 miles    
Events Rain , Thunderstorm    
T = Trace of Precipitation, MM = Missing Value Source: NWS Daily Summary

Daily Weather History Graph

Daily Weather History Graph

Search for Another Location

Airport or City:

Astronomy

Oct. 09, 2014 Rise Set
Actual Time 7:14 AM CDT 6:39 PM CDT
Civil Twilight 6:47 AM CDT 7:06 PM CDT
Nautical Twilight 6:15 AM CDT 7:38 PM CDT
Astronomical Twilight 5:44 AM CDT 8:09 PM CDT
Moon 7:36 PM CDT (10/9) 8:29 AM CDT (10/9)
Length of Visible Light 12h 19m
Length of Day
11h 25m
Full, 98% of the Moon is Illuminated
Oct 9
Full
Oct 15
Last Quarter
Oct 23
New
Oct 30
First Quarter
Nov 6
Full

Hourly Weather History & Observations

Time (CDT) Temp. Dew Point Humidity Pressure Visibility Wind Dir Wind Speed Gust Speed Precip Events Conditions
12:55 AM 57.0 °F 48.0 °F 72% 30.05 in 10.0 mi ENE 9.2 mph - N/A   Overcast
1:55 AM 57.0 °F 46.9 °F 69% 30.05 in 10.0 mi NE 10.4 mph - N/A   Overcast
2:55 AM 55.9 °F 50.0 °F 80% 30.06 in 9.0 mi East 5.8 mph - 0.01 in Rain , Thunderstorm Light Rain
3:04 AM 55.9 °F 48.9 °F 77% 30.06 in 10.0 mi NNE 3.5 mph - 0.00 in Rain Light Rain
3:55 AM 54.0 °F 50.0 °F 86% 30.05 in 10.0 mi ENE 6.9 mph - 0.00 in Rain Light Rain
4:13 AM 54.0 °F 50.0 °F 86% 30.10 in 10.0 mi WSW 8.1 mph - 0.00 in Rain , Thunderstorm Light Rain
4:44 AM 54.0 °F 51.1 °F 90% 30.10 in 8.0 mi East 5.8 mph - 0.02 in Rain , Thunderstorm Light Thunderstorms and Rain
4:55 AM 54.0 °F 51.1 °F 90% 30.11 in 3.0 mi NE 5.8 mph - 0.07 in Rain Rain
5:55 AM 52.0 °F 50.0 °F 93% 30.09 in 10.0 mi ENE 6.9 mph - 0.07 in Rain Light Rain
6:55 AM 52.0 °F 50.0 °F 93% 30.11 in 10.0 mi ENE 9.2 mph - 0.00 in   Mostly Cloudy
7:55 AM 52.0 °F 50.0 °F 93% 30.12 in 8.0 mi ENE 9.2 mph - 0.00 in Rain Light Rain
8:55 AM 52.0 °F 50.0 °F 93% 30.11 in 10.0 mi East 11.5 mph - 0.01 in   Mostly Cloudy
9:55 AM 55.0 °F 50.0 °F 83% 30.11 in 10.0 mi East 9.2 mph - N/A   Scattered Clouds
10:55 AM 57.0 °F 50.0 °F 77% 30.10 in 10.0 mi East 15.0 mph - N/A   Mostly Cloudy
11:55 AM 57.9 °F 50.0 °F 75% 30.12 in 10.0 mi ENE 13.8 mph 20.7 mph N/A   Mostly Cloudy
12:55 PM 57.9 °F 52.0 °F 81% 30.12 in 10.0 mi ENE 11.5 mph - N/A   Overcast
1:21 PM 60.1 °F 53.1 °F 78% 30.10 in 10.0 mi NE 11.5 mph - N/A   Overcast
1:55 PM 60.1 °F 53.1 °F 78% 30.09 in 10.0 mi NE 11.5 mph 18.4 mph N/A   Overcast
2:20 PM 57.9 °F 51.1 °F 78% 30.07 in 10.0 mi NE 16.1 mph - N/A   Overcast
2:55 PM 57.9 °F 51.1 °F 78% 30.08 in 10.0 mi ENE 11.5 mph - N/A   Overcast
3:55 PM 59.0 °F 50.0 °F 72% 30.07 in 10.0 mi ENE 11.5 mph - N/A   Overcast
4:55 PM 57.9 °F 52.0 °F 81% 30.07 in 10.0 mi ENE 6.9 mph - N/A   Overcast
5:55 PM 57.9 °F 51.1 °F 78% 30.07 in 10.0 mi ENE 10.4 mph - N/A   Overcast
6:55 PM 57.0 °F 52.0 °F 83% 30.09 in 10.0 mi ENE 5.8 mph - N/A   Overcast
7:55 PM 57.0 °F 53.1 °F 87% 30.10 in 10.0 mi East 4.6 mph - N/A   Overcast
8:55 PM 57.0 °F 53.1 °F 87% 30.12 in 10.0 mi ENE 3.5 mph - N/A   Overcast
9:55 PM 57.0 °F 53.1 °F 87% 30.12 in 10.0 mi NE 5.8 mph - N/A   Overcast
10:55 PM 55.9 °F 54.0 °F 93% 30.11 in 10.0 mi NNE 8.1 mph - N/A   Overcast
11:55 PM 57.0 °F 53.1 °F 87% 30.13 in 10.0 mi NE 4.6 mph - N/A   Overcast